Location: La Monta
(44.7667°N, 6.9833°E)
Time: 11:20:34
(UTC+00:00)

Daily predictions for brighter satellites

Satellite Brightness Start Highest point End
(mag) Time Altitude Azimuth Time Altitude Azimuth Time Altitude Azimuth
Meteor 1-18 Rocket 4.4 18:06:04 10° N 18:11:59 68° ENE 18:17:47 10° SSE
Cosmos 2333 Rocket 3.7 18:07:07 10° SW 18:12:35 43° WNW 18:18:04 10° NNE
SeaSat 1 3.2 18:10:08 10° NNE 18:14:58 57° WNW 18:19:46 10° SW
Iridium 4 Rocket 3.3 18:11:12 10° N 18:15:12 44° E 18:19:12 10° SSE
Cosmos 1151 Rocket 3.1 18:11:44 10° N 18:16:01 83° W 18:20:14 10° S
Cosmos 1937 Rocket 4.4 18:17:54 10° NNW 18:23:03 54° WSW 18:28:11 10° S
NOSS 0 Rocket 4.3 18:20:01 10° S 18:25:51 43° ESE 18:31:43 10° NE
Cosmos 1943 Rocket 3.1 18:23:14 10° N 18:28:01 29° NE 18:32:34 11° ESE
USA 276 2.8 18:25:19 10° NW 18:28:03 36° NNE 18:30:24 12° E
ACS3 Solar Sail 3.0 18:24:58 10° ESE 18:30:01 25° ENE 18:35:04 10° N
Cosmos 2322 3.7 18:25:27 10° SSW 18:31:06 90° W 18:36:48 10° NNE
Cosmos 2233 Rocket 4.1 18:26:05 10° S 18:32:14 81° W 18:38:26 10° N
Cosmos 1400 Rocket 2.6 18:28:25 10° N 18:32:14 72° ENE 18:35:59 10° SSE
BlueWalker 3 1.9 18:30:46 10° WNW 18:34:31 82° SW 18:37:58 12° SE
Cosmos 1066 Rocket 4.3 18:28:57 10° N 18:34:51 78° E 18:40:39 10° SSE
Cosmos 1726 2.0 18:32:16 10° SSW 18:35:01 59° W 18:37:45 10° N
Resurs 1-3 3.5 18:31:14 10° SSE 18:35:33 79° ENE 18:39:53 10° N
SAR-Lupe-2 3.8 18:40:00 10° S 18:43:33 74° WSW 18:47:08 10° NNW
Cosmos 1315 Rocket 4.2 18:44:55 10° NNE 18:47:56 20° ENE 18:49:14 18° E
Cosmos 1464 Rocket 4.3 18:42:22 10° SSE 18:48:16 44° E 18:54:16 10° NNE
Meteor PRIRODA 3.3 18:45:02 10° SSE 18:48:20 89° E 18:51:39 10° NNW
Cosmos 1125 Rocket 4.1 18:47:02 10° N 18:51:54 39° ENE 18:55:24 17° ESE
Cosmos 1536 3.0 18:49:31 10° SSE 18:53:06 42° E 18:56:45 10° NNE
Cosmos 1842 3.0 18:49:36 10° N 18:53:13 67° E 18:56:48 10° SSE
Okean 3 Rocket 3.8 18:49:14 10° SSE 18:53:32 49° E 18:57:50 10° NNE
USA 59 Rocket 0.2 18:50:54 10° NW 18:54:53 83° SW 19:00:05 12° SSE
COSMOS 2428 3.0 18:49:15 10° SSW 18:54:56 73° WNW 19:00:42 10° NNE
Cosmos 1707 2.5 18:53:31 10° N 18:57:02 59° E 19:00:08 13° SSE
Cosmos 1515 Rocket 3.8 18:53:07 10° N 18:57:18 46° ENE 19:00:44 15° SSE
Okean O Rocket 2.4 18:57:42 20° ESE 18:59:56 32° ENE 19:03:53 10° N
Feng Yun 1-1 Rocket 4.5 18:55:14 10° SE 19:00:51 56° ENE 19:06:37 10° N
CZ-4B DEB 4.4 19:02:14 10° S 19:07:44 74° WSW 19:13:15 10° NNW
Cosmos 2278 Rocket 2.1 19:02:16 10° NNW 19:07:58 81° ENE 19:12:39 16° SSE
USA 306 4.0 19:05:10 10° W 19:08:00 29° NNW 19:11:13 10° NE
CZ-4 R/B 1.4 19:05:03 10° S 19:08:50 75° WSW 19:12:44 10° NNW
Meteor 2-9 Rocket 4.4 19:04:29 10° SSE 19:09:29 43° E 19:14:35 10° NNE
Cosmos 2034 Rocket 4.3 19:04:44 10° SSE 19:10:32 44° E 19:16:20 10° NNE
Meteor 1-13 Rocket 4.4 19:04:52 10° N 19:10:39 55° ENE 19:14:59 17° SSE
CZ-4B R/B 3.1 19:06:53 11° SSE 19:12:13 71° ENE 19:17:35 10° N
Cosmos 1500 Rocket 4.2 19:10:44 25° SE 19:12:23 34° E 19:16:19 10° NNE
Cosmos 1766 Rocket 4.4 19:09:01 10° SSW 19:13:15 53° WNW 19:17:34 10° N
Cosmos 1072 Rocket 4.5 19:07:39 10° S 19:14:02 75° E 19:20:26 10° NNE
Resurs 01 Rocket 1.5 19:10:19 12° SSE 19:14:21 81° ENE 19:18:47 10° N
NOSS 3-3 (C) 4.0 19:10:09 10° S 19:15:05 41° ESE 19:20:43 10° NE
NOSS 2-1 (C) 4.3 19:11:19 10° NW 19:15:13 54° SW 19:19:46 14° SSE
Meteor 2-10 4.2 19:10:49 10° S 19:16:18 64° E 19:21:56 10° NNE
Meteor 2-17 Rocket 4.4 19:11:12 10° N 19:17:18 86° W 19:23:21 10° S
GEOS 3 Rocket 3.6 19:13:39 19° SE 19:17:28 83° SW 19:22:41 10° NW
Helios 1A 3.7 19:13:30 10° N 19:17:29 54° WNW 19:21:26 10° SSW
USA 290 2.9 19:15:01 10° NNW 19:18:14 54° WSW 19:20:16 20° S
Cosmos 1743 Rocket 4.4 19:19:19 29° E 19:19:19 29° E 19:22:53 10° NNE
USA 186 1.8 19:17:45 22° S 19:19:42 75° WSW 19:22:57 10° NNW
PAYLOAD B 4.4 19:15:16 10° S 19:20:51 75° WSW 19:26:29 10° NNW
MOS 1-B 4.3 19:17:39 17° SSE 19:22:05 68° ENE 19:27:51 10° N
SPOT 5 3.6 19:22:14 29° E 19:22:58 31° ENE 19:26:53 10° N
Okean-O 3.4 19:23:05 31° E 19:23:44 33° ENE 19:27:40 10° N
Cosmos 2208 Rocket 4.1 19:20:21 10° S 19:25:26 54° ESE 19:30:37 10° NNE
Cosmos 1408 Rocket 3.4 19:22:57 10° S 19:27:16 65° E 19:31:39 10° NNE
CZ-4B R/B 3.9 19:25:17 10° S 19:28:57 45° W 19:32:50 10° NNW
NOSS 3-3 (A) 3.7 19:24:01 10° SSW 19:29:10 57° ESE 19:35:09 10° NE
ISS -3.5 19:26:16 10° WSW 19:29:35 65° NNW 19:30:43 37° NE
Cosmos 2237 Rocket 2.2 19:28:18 10° SSW 19:33:55 86° WNW 19:39:35 10° NNE
CSL-04 Rocket 3.6 19:31:45 16° SSE 19:36:02 82° WSW 19:41:23 10° NNW
Aureole 3 Rocket 3.8 19:29:20 10° S 19:36:20 61° E 19:41:20 10° NNE
Cosmos 1607 4.4 19:31:03 10° S 19:36:55 38° ESE 19:42:48 10° NE
Meteor 1-11 Rocket 3.7 19:39:44 10° SSW 19:45:22 81° W 19:50:57 10° N
Lacrosse 4 Rocket 4.4 19:44:14 10° W 19:45:52 12° WSW 19:47:30 10° SW
MOS 1 Rocket 3.9 19:45:39 41° E 19:46:11 43° ENE 19:51:08 10° N
IKONOS-2 4.4 19:43:12 10° NNE 19:47:22 83° WNW 19:50:24 18° SSW
Cosmos 158 Rocket 3.9 19:45:56 10° SSW 19:50:48 77° WNW 19:55:41 10° NNE
ATLAS CENTAUR R/B 1.6 19:47:44 10° SW 19:51:14 57° NW 19:54:53 10° NNE
Cosmos 1805 Rocket 3.3 19:52:47 64° SSE 19:53:25 81° E 19:57:45 10° N
Cosmos 1428 Rocket 4.4 19:53:16 10° N 19:59:24 88° W 20:02:19 34° S
USA 276 4.4 19:59:30 10° WNW 20:00:38 20° W 20:00:38 20° W
SL-24 R/B 4.2 20:01:56 68° ESE 20:02:18 71° E 20:07:06 10° N
Cosmos 2369 Rocket 3.1 19:59:48 10° N 20:04:57 33° NE 20:05:11 33° ENE
Sich 1 3.3 20:07:33 46° SW 20:08:37 64° W 20:12:55 10° N
Meteor 1-21 4.2 20:03:58 10° N 20:09:44 69° ENE 20:10:23 63° ESE
Cosmos 1943 Rocket 2.9 20:06:40 10° NW 20:11:56 47° WSW 20:14:06 31° SSW
BlueWalker 3 4.5 20:10:19 10° W 20:12:01 13° SW 20:12:13 13° SW
Terra 2.5 20:13:52 41° NE 20:13:52 41° NE 20:17:27 10° N
ACS3 Solar Sail 2.2 20:09:36 24° S 20:13:33 63° W 20:19:56 10° NNW
ERS-1 Rocket 3.1 20:14:03 57° NE 20:14:03 57° NE 20:18:36 10° N
Cosmos 2298 Rocket 4.0 20:10:31 10° NNW 20:15:50 80° WSW 20:16:27 68° S
Cosmos 1975 4.5 20:18:58 26° N 20:18:58 26° N 20:20:47 10° N
Cosmos 2150 Rocket 3.9 20:12:21 10° NNW 20:17:31 77° WSW 20:17:56 71° SSW
USA 32 4.3 20:12:48 10° N 20:18:00 66° W 20:19:24 47° SSW
Cosmos 1805 4.5 20:21:37 37° NW 20:21:37 37° NW 20:24:28 10° N
Ariane Rocket 3.9 20:24:21 37° NE 20:24:21 37° NE 20:28:00 10° N
Cosmos 1315 Rocket 4.3 20:20:30 10° NNW 20:24:03 32° W 20:24:27 31° WSW
Cosmos 2026 Rocket 4.0 20:18:02 10° N 20:24:16 78° W 20:25:51 52° SSW
Cosmos 1092 Rocket 4.0 20:18:24 10° N 20:24:46 80° W 20:26:28 51° S
IRS-1A Rocket 4.1 20:26:28 78° SE 20:26:51 85° ENE 20:32:35 10° NNW
Meteor 2-12 Rocket 4.3 20:21:53 10° N 20:28:05 89° W 20:28:56 69° S
SL-16 R/B 2.3 20:35:16 63° NNE 20:35:16 63° NNE 20:40:01 10° NNE
Okean O Rocket 3.4 20:35:02 24° WSW 20:36:11 26° W 20:39:56 10° NW
Cosmos 1634 Rocket 4.0 20:36:31 53° SSW 20:38:07 78° W 20:44:29 10° N
Cosmos 1656 Rocket 3.8 20:36:16 10° NNW 20:41:19 69° N 20:41:19 69° N
USA 59 Rocket 3.1 20:42:56 10° W 20:44:18 11° WSW 20:45:48 10° SW
IRS-1C Rocket 4.3 20:45:02 68° NW 20:45:02 68° NW 20:49:47 10° NNW
SPOT 3 Rocket 4.4 21:00:55 45° N 21:00:55 45° N 21:04:26 10° NNW
SPOT 5 4.4 21:01:22 28° W 21:01:22 28° W 21:04:52 10° NW
USA 267 3.8 21:08:22 47° NE 21:08:52 48° NNE 21:15:05 10° NW
Cosmos 2279 Rocket 4.5 21:20:00 56° WNW 21:20:00 56° WNW 21:25:52 10° N
NOSS 3-4 (A) 4.4 21:39:03 10° NW 21:44:37 53° W 21:44:37 53° W
NOSS 3-4 (C) 4.4 21:39:09 10° NW 21:44:43 53° W 21:44:43 53° W
Cosmos 2369 Rocket 3.8 21:43:42 10° NW 21:46:58 31° WNW 21:46:58 31° WNW
Terra 4.4 21:52:34 16° WNW 21:52:34 16° WNW 21:54:10 10° NW
ATLAS 2AS CENTAUR R/B 4.1 22:31:19 10° NNW 22:36:31 30° NNE 22:36:31 30° NNE
Cosmos 2344 4.3 23:21:00 10° NW 23:27:14 59° NW 23:27:14 59° NW
